Flood From: 18-02-2018 10:00 Until: 19-02-2018 06:00 warning for: Flood Level: Yellow info button

Although rather usual in this region, locally or potentially dangerous phenomena are expected. (such as local winds, summer thunderstorms, rising streams or high waves) Be aware and pay attention to the latest weather updates, especially if you carry out activities exposed to weather or close to a stream or shoreline. 


Meteo18 Weather Cam more information Meteo18 Weather Cam


Thunder radar more information blitzortung!


Rain radar more information rain snow radar


Visit our other weather sites:

Template documentation
and downloads

And another site



Weather Underground History page Text

Daily Summary for June 28, 2017 Units:  English    Metric   Both
« Previous Day
Next Day »
Daily Weekly Monthly Yearly Custom
  High: Low: Average:
Temperature: TemperatureC °F 15.4 °F 18.3 °F
Dew Point: DewpointC °F 12.3 °F 14.3 °F
Humidity: Humidity % 54 % 78 %
Wind Speed: WindSpeedKMH mph 1.6 mph 10.2 mph
Wind Gust: WindSpeedGustKMH mph - -
Wind:- - SW
Pressure: PressurehPa in 998.9 in -
Precipitation: 1.3 in    
Historical Graphs
 
 
Tabular Data for June 28, 2017
Time Temperature Dew Point Pressure Wind Wind Speed Wind Gust Humidity Rainfall Rate (Hourly)
TemperatureC °F DewpointC °F PressurehPa in Calm     Humidity % HourlyPrecipMM in
00:02 18.3 °F 15.2 °F 1004.6 in SW 17.7 mph 19.3 mph 82 % 0.0 in
00:12 18.2 °F 14.9 °F 1005.0 in SW 14.5 mph 19.3 mph 81 % 0.0 in
00:17 18.2 °F 14.1 °F 1004.6 in WSW 8.0 mph 19.3 mph 77 % 0.0 in
00:22 18.2 °F 13.9 °F 1004.6 in WSW 11.3 mph 19.3 mph 76 % 0.0 in
00:32 18.2 °F 13.9 °F 1004.3 in SW 11.3 mph 25.7 mph 76 % 0.0 in
00:37 18.1 °F 13.8 °F 1004.3 in SW 14.5 mph 22.5 mph 76 % 0.0 in
00:42 18.1 °F 13.8 °F 1004.3 in SSW 17.7 mph 22.5 mph 76 % 0.0 in
00:47 18.1 °F 14.0 °F 1004.3 in West 6.4 mph 22.5 mph 77 % 0.0 in
00:52 18.0 °F 13.9 °F 1004.3 in SW 4.8 mph 22.5 mph 77 % 0.0 in
00:57 17.9 °F 14.0 °F 1003.9 in SW 6.4 mph 19.3 mph 78 % 0.0 in
01:02 17.8 °F 14.1 °F 1003.9 in WSW 3.2 mph 19.3 mph 79 % 0.0 in
01:12 17.7 °F 14.2 °F 1003.9 in WSW 8.0 mph 16.1 mph 80 % 0.0 in
01:17 17.7 °F 14.2 °F 1003.9 in SSW 4.8 mph 11.3 mph 80 % 0.0 in
01:22 17.7 °F 14.2 °F 1003.9 in WSW 4.8 mph 12.9 mph 80 % 0.0 in
01:32 17.7 °F 14.2 °F 1003.9 in SW 9.7 mph 20.9 mph 80 % 0.0 in
01:37 17.6 °F 14.1 °F 1003.9 in West 14.5 mph 24.1 mph 80 % 0.0 in
01:42 17.6 °F 14.3 °F 1003.6 in WSW 12.9 mph 24.1 mph 81 % 0.0 in
01:47 17.6 °F 14.3 °F 1003.6 in SW 8.0 mph 24.1 mph 81 % 0.0 in
01:52 17.6 °F 14.5 °F 1003.6 in SW 4.8 mph 22.5 mph 82 % 0.0 in
01:57 17.5 °F 14.4 °F 1003.6 in SW 4.8 mph 22.5 mph 82 % 0.0 in
02:02 17.4 °F 14.3 °F 1003.6 in WSW 6.4 mph 22.5 mph 82 % 0.0 in
02:12 17.4 °F 14.5 °F 1003.6 in WSW 6.4 mph 20.9 mph 83 % 0.0 in
02:17 17.3 °F 14.4 °F 1003.9 in WSW 6.4 mph 19.3 mph 83 % 0.0 in
02:22 17.3 °F 14.6 °F 1003.6 in West 4.8 mph 19.3 mph 84 % 0.0 in
02:27 17.3 °F 14.6 °F 1003.6 in SW 14.5 mph 20.9 mph 84 % 0.0 in
02:32 17.3 °F 14.6 °F 1003.6 in SW 4.8 mph 20.9 mph 84 % 0.0 in
02:37 17.3 °F 14.6 °F 1003.6 in SW 8.0 mph 20.9 mph 84 % 0.0 in
02:42 17.2 °F 14.5 °F 1003.6 in SW 14.5 mph 20.9 mph 84 % 0.0 in
02:52 17.2 °F 14.7 °F 1003.3 in SW 16.1 mph 20.9 mph 85 % 0.0 in
02:57 17.2 °F 14.7 °F 1003.3 in SSE 8.0 mph 25.7 mph 85 % 0.0 in
03:02 17.2 °F 14.7 °F 1003.3 in SW 17.7 mph 25.7 mph 85 % 0.0 in
03:12 17.1 °F 14.6 °F 1003.3 in SW 3.2 mph 20.9 mph 85 % 0.0 in
03:17 17.1 °F 14.7 °F 1003.6 in WSW 9.7 mph 22.5 mph 86 % 0.0 in
03:22 17.1 °F 14.7 °F 1003.3 in SW 14.5 mph 22.5 mph 86 % 0.0 in
03:32 17.0 °F 14.6 °F 1003.3 in SSW 9.7 mph 20.9 mph 86 % 0.0 in
03:37 16.9 °F 14.5 °F 1003.3 in WSW 6.4 mph 20.9 mph 86 % 0.0 in
03:42 16.9 °F 14.5 °F 1002.9 in SW 9.7 mph 17.7 mph 86 % 0.0 in
03:47 16.9 °F 14.7 °F 1002.9 in WSW 8.0 mph 17.7 mph 87 % 0.0 in
03:52 16.9 °F 14.7 °F 1003.3 in SW 8.0 mph 17.7 mph 87 % 0.0 in
03:57 16.8 °F 14.6 °F 1003.3 in SW 6.4 mph 17.7 mph 87 % 0.0 in
04:02 16.8 °F 14.6 °F 1003.3 in WSW 12.9 mph 17.7 mph 87 % 0.0 in
04:12 16.7 °F 14.7 °F 1003.3 in WSW 12.9 mph 17.7 mph 88 % 0.0 in
04:17 16.6 °F 14.6 °F 1003.3 in WSW 14.5 mph 19.3 mph 88 % 0.0 in
04:22 16.6 °F 14.6 °F 1003.3 in SSE 8.0 mph 19.3 mph 88 % 0.0 in
04:27 16.5 °F 14.5 °F 1003.3 in SW 14.5 mph 19.3 mph 88 % 0.0 in
04:32 16.4 °F 14.4 °F 1002.9 in SW 8.0 mph 17.7 mph 88 % 0.0 in
04:37 16.3 °F 14.5 °F 1002.9 in WSW 9.7 mph 22.5 mph 89 % 0.0 in
04:42 16.2 °F 14.4 °F 1002.9 in South 8.0 mph 22.5 mph 89 % 0.0 in
04:47 16.2 °F 14.4 °F 1002.9 in SSW 11.3 mph 22.5 mph 89 % 0.0 in
04:52 16.2 °F 14.4 °F 1002.9 in SW 9.7 mph 22.5 mph 89 % 0.0 in
04:57 16.1 °F 14.3 °F 1002.9 in West 8.0 mph 22.5 mph 89 % 0.0 in
05:02 16.1 °F 14.3 °F 1003.3 in SW 14.5 mph 19.3 mph 89 % 0.0 in
05:12 16.1 °F 14.5 °F 1003.3 in SSW 14.5 mph 19.3 mph 90 % 0.0 in
05:17 16.0 °F 14.4 °F 1003.3 in SW 8.0 mph 19.3 mph 90 % 0.0 in
05:22 15.9 °F 14.3 °F 1003.3 in SW 12.9 mph 20.9 mph 90 % 0.0 in
05:32 15.9 °F 14.3 °F 1003.3 in SW 12.9 mph 22.5 mph 90 % 0.0 in
05:42 15.9 °F 14.3 °F 1003.3 in SW 4.8 mph 22.5 mph 90 % 0.0 in
05:47 15.9 °F 14.3 °F 1003.3 in WSW 4.8 mph 22.5 mph 90 % 0.0 in
05:52 15.9 °F 14.3 °F 1003.3 in SW 8.0 mph 22.5 mph 90 % 0.0 in
05:57 15.9 °F 14.3 °F 1003.3 in WSW 12.9 mph 22.5 mph 90 % 0.0 in
06:02 16.0 °F 14.4 °F 1003.3 in SSW 9.7 mph 19.3 mph 90 % 0.0 in
06:12 16.1 °F 14.5 °F 1003.3 in SW 16.1 mph 19.3 mph 90 % 0.0 in
06:17 16.1 °F 14.5 °F 1003.3 in SSW 14.5 mph 19.3 mph 90 % 0.0 in
06:22 16.1 °F 14.5 °F 1003.3 in SW 9.7 mph 20.9 mph 90 % 0.0 in
06:32 16.2 °F 14.6 °F 1003.3 in SW 12.9 mph 20.9 mph 90 % 0.0 in
06:37 16.2 °F 14.6 °F 1002.9 in SSW 12.9 mph 20.9 mph 90 % 0.0 in
06:42 16.2 °F 14.4 °F 1002.9 in SW 14.5 mph 20.9 mph 89 % 0.0 in
06:47 16.2 °F 14.4 °F 1002.9 in SSW 6.4 mph 20.9 mph 89 % 0.0 in
06:52 16.2 °F 14.4 °F 1002.9 in SSW 12.9 mph 22.5 mph 89 % 0.0 in
07:02 16.2 °F 14.6 °F 1002.9 in SW 9.7 mph 22.5 mph 90 % 0.0 in
07:07 16.1 °F 14.5 °F 1002.9 in SSW 8.0 mph 22.5 mph 90 % 0.0 in
07:12 16.0 °F 14.5 °F 1002.9 in SW 6.4 mph 24.1 mph 91 % 0.0 in
07:17 15.9 °F 14.6 °F 1002.9 in SSW 8.0 mph 24.1 mph 92 % 0.0 in
07:22 15.8 °F 14.5 °F 1002.9 in SW 4.8 mph 17.7 mph 92 % 0.0 in
07:32 15.8 °F 14.5 °F 1002.9 in SW 12.9 mph 17.7 mph 92 % 0.0 in
07:42 15.8 °F 14.7 °F 1002.9 in SSW 11.3 mph 14.5 mph 93 % 0.0 in
07:47 15.9 °F 14.6 °F 1002.9 in WSW 9.7 mph 14.5 mph 92 % 0.0 in
07:52 15.9 °F 14.6 °F 1002.9 in WSW 8.0 mph 17.7 mph 92 % 0.0 in
07:57 16.0 °F 14.7 °F 1002.9 in SSW 8.0 mph 17.7 mph 92 % 0.0 in
08:02 16.1 °F 14.8 °F 1002.9 in SW 14.5 mph 14.5 mph 92 % 0.0 in
08:12 16.2 °F 14.7 °F 1002.9 in SSW 12.9 mph 14.5 mph 91 % 0.0 in
08:17 16.4 °F 14.9 °F 1002.9 in SSW 6.4 mph 14.5 mph 91 % 0.0 in
08:22 16.6 °F 15.0 °F 1002.6 in SSE 9.7 mph 19.3 mph 90 % 0.0 in
08:27 16.7 °F 14.9 °F 1002.6 in SW 11.3 mph 19.3 mph 89 % 0.0 in
08:32 16.8 °F 15.0 °F 1002.6 in WSW 11.3 mph 19.3 mph 89 % 0.0 in
08:42 17.1 °F 15.1 °F 1002.6 in SW 8.0 mph 19.3 mph 88 % 0.0 in
08:52 17.2 °F 15.0 °F 1002.6 in SW 11.3 mph 19.3 mph 87 % 0.0 in
08:57 17.2 °F 14.8 °F 1002.6 in SW 12.9 mph 19.3 mph 86 % 0.0 in
09:02 17.2 °F 14.8 °F 1002.6 in South 11.3 mph 20.9 mph 86 % 0.0 in
09:12 17.3 °F 14.8 °F 1002.6 in WSW 14.5 mph 20.9 mph 85 % 0.0 in
09:17 17.6 °F 14.9 °F 1002.6 in SSW 11.3 mph 20.9 mph 84 % 0.0 in
09:22 17.9 °F 15.0 °F 1002.6 in SW 8.0 mph 24.1 mph 83 % 0.0 in
09:27 17.9 °F 14.8 °F 1002.6 in WSW 12.9 mph 24.1 mph 82 % 0.0 in
09:32 18.1 °F 15.0 °F 1002.6 in South 14.5 mph 24.1 mph 82 % 0.0 in
09:37 18.3 °F 15.4 °F 1002.6 in WSW 4.8 mph 24.1 mph 83 % 0.0 in
09:42 18.6 °F 15.1 °F 1002.3 in WSW 14.5 mph 24.1 mph 80 % 0.0 in
09:47 18.6 °F 15.3 °F 1002.6 in WSW 3.2 mph 24.1 mph 81 % 0.0 in
09:57 18.7 °F 14.8 °F 1002.3 in SW 16.1 mph 20.9 mph 78 % 0.0 in
10:02 18.8 °F 14.9 °F 1002.3 in WSW 14.5 mph 20.9 mph 78 % 0.0 in
10:12 18.7 °F 14.6 °F 1002.3 in WSW 14.5 mph 22.5 mph 77 % 0.0 in
10:17 18.7 °F 14.8 °F 1002.3 in WSW 3.2 mph 22.5 mph 78 % 0.0 in
10:22 18.7 °F 15.0 °F 1002.3 in SW 1.6 mph 20.9 mph 79 % 0.0 in
10:32 19.2 °F 15.1 °F 1001.9 in SW 8.0 mph 20.9 mph 77 % 0.0 in
10:37 19.2 °F 14.7 °F 1002.3 in SSW 9.7 mph 20.9 mph 75 % 0.0 in
10:42 19.0 °F 14.5 °F 1002.3 in SW 12.9 mph 20.9 mph 75 % 0.0 in
10:47 18.9 °F 15.0 °F 1002.3 in South 11.3 mph 20.9 mph 78 % 0.0 in
10:52 19.0 °F 15.3 °F 1001.9 in SSE 12.9 mph 22.5 mph 79 % 0.0 in
11:02 19.1 °F 15.0 °F 1001.9 in SSE 4.8 mph 17.7 mph 77 % 0.0 in
11:12 19.1 °F 15.0 °F 1001.9 in SW 9.7 mph 17.7 mph 77 % 0.0 in
11:17 19.3 °F 15.0 °F 1001.6 in SSW 11.3 mph 17.7 mph 76 % 0.0 in
11:22 19.6 °F 15.0 °F 1001.6 in South 9.7 mph 17.7 mph 75 % 0.0 in
11:27 19.6 °F 15.0 °F 1001.6 in SW 8.0 mph 17.7 mph 75 % 0.0 in
11:32 19.8 °F 15.2 °F 1001.6 in SSW 8.0 mph 17.7 mph 75 % 0.0 in
11:42 19.6 °F 14.6 °F 1001.6 in SW 11.3 mph 19.3 mph 73 % 0.0 in
11:52 19.3 °F 14.8 °F 1001.6 in SSW 12.9 mph 22.5 mph 75 % 0.0 in
11:57 19.2 °F 15.3 °F 1001.6 in South 4.8 mph 22.5 mph 78 % 0.0 in
12:02 18.8 °F 15.5 °F 1001.6 in SW 6.4 mph 22.5 mph 81 % 0.0 in
12:12 18.7 °F 15.9 °F 1001.6 in South 8.0 mph 17.7 mph 84 % 0.0 in
12:17 18.7 °F 15.6 °F 1001.2 in SSW 16.1 mph 17.7 mph 82 % 0.0 in
12:22 18.9 °F 15.9 °F 1001.2 in WSW 12.9 mph 19.3 mph 83 % 0.0 in
12:32 19.3 °F 16.0 °F 1001.2 in SW 17.7 mph 19.3 mph 81 % 0.0 in
12:37 19.1 °F 16.1 °F 1001.2 in SSW 14.5 mph 25.7 mph 83 % 0.0 in
12:42 18.9 °F 15.8 °F 1001.2 in SSW 14.5 mph 25.7 mph 82 % 0.0 in
12:47 18.9 °F 15.8 °F 1001.2 in SW 19.3 mph 25.7 mph 82 % 0.0 in
12:57 19.3 °F 15.8 °F 1001.2 in SW 12.9 mph 27.4 mph 80 % 0.0 in
13:02 19.3 °F 15.6 °F 1001.2 in South 14.5 mph 27.4 mph 79 % 0.0 in
13:07 19.4 °F 15.1 °F 1001.2 in SW 6.4 mph 27.4 mph 76 % 0.0 in
13:12 19.4 °F 15.1 °F 1001.2 in SSW 19.3 mph 29.0 mph 76 % 0.0 in
13:22 18.4 °F 15.1 °F 1001.2 in WSW 19.3 mph 32.2 mph 81 % 0.0 in
13:27 17.8 °F 15.4 °F 1001.2 in SW 8.0 mph 32.2 mph 86 % 0.0 in
13:32 17.4 °F 15.4 °F 1001.2 in South 6.4 mph 29.0 mph 88 % 0.5 in
13:42 17.3 °F 15.6 °F 1001.2 in SW 6.4 mph 20.9 mph 90 % 0.5 in
13:52 17.6 °F 15.9 °F 1001.2 in SW 8.0 mph 19.3 mph 90 % 0.5 in
13:57 17.7 °F 15.9 °F 1000.9 in SW 12.9 mph 19.3 mph 89 % 0.5 in
14:02 18.1 °F 16.3 °F 1000.9 in WSW 11.3 mph 24.1 mph 89 % 0.5 in
14:12 18.3 °F 15.9 °F 1000.9 in WSW 4.8 mph 24.1 mph 86 % 0.5 in
14:17 18.3 °F 15.9 °F 1000.9 in WSW 11.3 mph 24.1 mph 86 % 0.5 in
14:22 18.1 °F 16.1 °F 1000.9 in WNW 3.2 mph 22.5 mph 88 % 0.8 in
14:32 17.8 °F 15.8 °F 1000.9 in WSW 8.0 mph 20.9 mph 88 % 0.5 in
14:42 18.3 °F 15.5 °F 1000.9 in West 6.4 mph 16.1 mph 84 % 0.5 in
14:52 19.1 °F 15.4 °F 1000.6 in West 11.3 mph 22.5 mph 79 % 0.5 in
14:57 19.4 °F 15.7 °F 1000.6 in West 9.7 mph 22.5 mph 79 % 0.5 in
15:02 19.8 °F 15.9 °F 1000.6 in West 6.4 mph 22.5 mph 78 % 0.5 in
15:12 19.7 °F 14.9 °F 1000.6 in West 8.0 mph 20.9 mph 74 % 0.5 in
15:17 19.6 °F 15.0 °F 1000.6 in WSW 9.7 mph 19.3 mph 75 % 0.5 in
15:22 19.6 °F 15.3 °F 1000.6 in West 11.3 mph 25.7 mph 76 % 0.5 in
15:27 19.6 °F 15.5 °F 1000.6 in West 6.4 mph 25.7 mph 77 % 0.0 in
15:32 19.7 °F 15.8 °F 1000.6 in WNW 4.8 mph 24.1 mph 78 % 0.0 in
15:37 19.9 °F 15.5 °F 1000.6 in West 8.0 mph 19.3 mph 76 % 0.0 in
15:42 20.0 °F 15.6 °F 1000.6 in WSW 9.7 mph 19.3 mph 76 % 0.0 in
15:47 20.1 °F 15.5 °F 1000.2 in WSW 8.0 mph 17.7 mph 75 % 0.0 in
15:52 20.0 °F 15.0 °F 1000.6 in SW 4.8 mph 14.5 mph 73 % 0.0 in
15:57 19.8 °F 15.9 °F 1000.6 in SSW 6.4 mph 19.3 mph 78 % 0.3 in
16:02 19.5 °F 16.3 °F 1000.2 in SW 6.4 mph 19.3 mph 82 % 0.3 in
16:12 19.8 °F 16.4 °F 1000.2 in WSW 1.6 mph 19.3 mph 81 % 0.3 in
16:17 20.0 °F 16.0 °F 1000.2 in WSW 6.4 mph 11.3 mph 78 % 0.3 in
16:22 20.3 °F 15.9 °F 1000.2 in West 4.8 mph 11.3 mph 76 % 0.3 in
16:27 20.8 °F 16.2 °F 1000.2 in SSE 16.1 mph 16.1 mph 75 % 0.3 in
16:32 21.2 °F 15.3 °F 1000.2 in WSW 4.8 mph 14.5 mph 69 % 0.3 in
16:42 21.1 °F 14.0 °F 1000.2 in WSW 12.9 mph 20.9 mph 64 % 0.3 in
16:47 21.6 °F 14.5 °F 999.9 in SW 19.3 mph 27.4 mph 64 % 0.3 in
16:52 21.7 °F 14.1 °F 999.9 in WSW 19.3 mph 27.4 mph 62 % 0.3 in
16:57 21.9 °F 14.5 °F 999.5 in SSW 9.7 mph 24.1 mph 63 % 0.0 in
17:02 22.2 °F 13.5 °F 999.5 in WSW 8.0 mph 22.5 mph 58 % 0.0 in
17:12 22.6 °F 13.4 °F 999.5 in WSW 17.7 mph 24.1 mph 56 % 0.0 in
17:17 22.3 °F 12.8 °F 999.5 in WSW 17.7 mph 25.7 mph 55 % 0.0 in
17:22 22.3 °F 13.6 °F 999.5 in SSW 8.0 mph 27.4 mph 58 % 0.0 in
17:27 22.4 °F 13.2 °F 999.5 in South 12.9 mph 27.4 mph 56 % 0.0 in
17:32 22.5 °F 13.3 °F 999.2 in West 11.3 mph 27.4 mph 56 % 0.0 in
17:37 22.6 °F 13.6 °F 999.5 in West 6.4 mph 27.4 mph 57 % 0.0 in
17:42 22.8 °F 13.3 °F 999.2 in SW 19.3 mph 27.4 mph 55 % 0.0 in
17:47 22.7 °F 13.2 °F 999.2 in WSW 20.9 mph 24.1 mph 55 % 0.0 in
17:52 22.8 °F 13.6 °F 999.2 in SW 4.8 mph 24.1 mph 56 % 0.0 in
17:57 22.7 °F 12.9 °F 999.2 in SSW 14.5 mph 25.7 mph 54 % 0.0 in
18:02 22.3 °F 12.8 °F 998.9 in West 8.0 mph 25.7 mph 55 % 0.0 in
18:12 22.3 °F 13.1 °F 999.2 in West 9.7 mph 22.5 mph 56 % 0.0 in
18:17 22.2 °F 13.5 °F 999.2 in SW 12.9 mph 20.9 mph 58 % 0.0 in
18:22 21.9 °F 13.5 °F 999.2 in SW 11.3 mph 20.9 mph 59 % 0.0 in
18:27 21.7 °F 13.3 °F 999.2 in West 17.7 mph 32.2 mph 59 % 0.0 in
18:32 21.5 °F 13.4 °F 999.2 in WSW 19.3 mph 32.2 mph 60 % 0.0 in
18:37 21.4 °F 13.6 °F 999.2 in WSW 20.9 mph 40.2 mph 61 % 0.0 in
18:42 21.4 °F 13.3 °F 999.2 in West 9.7 mph 40.2 mph 60 % 0.0 in
18:47 21.6 °F 13.0 °F 999.2 in WSW 16.1 mph 40.2 mph 58 % 0.0 in
18:52 21.7 °F 13.3 °F 999.2 in SW 30.6 mph 40.2 mph 59 % 0.0 in
18:57 21.6 °F 13.0 °F 999.2 in SSW 14.5 mph 33.8 mph 58 % 0.0 in
19:02 21.6 °F 13.0 °F 999.2 in WSW 17.7 mph 33.8 mph 58 % 0.0 in
19:12 21.4 °F 12.8 °F 999.2 in SW 9.7 mph 33.8 mph 58 % 0.0 in
19:22 21.3 °F 13.2 °F 999.2 in West 16.1 mph 30.6 mph 60 % 0.0 in
19:32 21.3 °F 13.7 °F 999.2 in SW 16.1 mph 33.8 mph 62 % 0.0 in
19:37 21.3 °F 14.2 °F 999.5 in West 11.3 mph 33.8 mph 64 % 0.0 in
19:42 21.2 °F 14.1 °F 999.5 in WSW 16.1 mph 30.6 mph 64 % 0.0 in
19:52 20.4 °F 14.1 °F 999.5 in SW 11.3 mph 29.0 mph 67 % 0.0 in
19:57 20.2 °F 13.9 °F 999.5 in WSW 11.3 mph 25.7 mph 67 % 0.0 in
20:02 20.1 °F 14.0 °F 999.5 in SSW 8.0 mph 25.7 mph 68 % 0.0 in
20:12 20.3 °F 14.0 °F 999.5 in WSW 11.3 mph 24.1 mph 67 % 0.0 in
20:17 20.2 °F 14.1 °F 999.5 in West 19.3 mph 19.3 mph 68 % 0.0 in
20:27 19.9 °F 14.0 °F 999.5 in West 8.0 mph 25.7 mph 69 % 0.0 in
20:32 19.8 °F 13.9 °F 999.5 in SW 25.7 mph 25.7 mph 69 % 0.0 in
20:37 19.7 °F 13.9 °F 999.5 in SW 6.4 mph 22.5 mph 69 % 0.0 in
20:42 19.8 °F 13.7 °F 999.5 in West 6.4 mph 25.7 mph 68 % 0.0 in
20:47 20.0 °F 13.7 °F 999.5 in WSW 6.4 mph 25.7 mph 67 % 0.0 in
20:52 20.0 °F 13.5 °F 999.5 in SW 19.3 mph 25.7 mph 66 % 0.0 in
20:57 19.7 °F 12.7 °F 999.5 in South 17.7 mph 22.5 mph 64 % 0.0 in
21:02 19.5 °F 12.3 °F 999.9 in WSW 20.9 mph 22.5 mph 63 % 0.0 in
21:12 19.1 °F 12.4 °F 999.9 in SSW 16.1 mph 22.5 mph 65 % 0.0 in
21:17 18.8 °F 12.3 °F 999.5 in West 11.3 mph 24.1 mph 66 % 0.0 in
21:22 18.7 °F 12.4 °F 999.9 in SW 6.4 mph 24.1 mph 67 % 0.0 in
21:27 18.6 °F 12.6 °F 999.9 in SSW 22.5 mph 22.5 mph 68 % 0.0 in
21:37 18.3 °F 12.7 °F 999.9 in SW 11.3 mph 22.5 mph 70 % 0.0 in
21:42 18.2 °F 12.6 °F 999.9 in SW 9.7 mph 22.5 mph 70 % 0.0 in
21:47 18.1 °F 12.8 °F 999.9 in SW 4.8 mph 17.7 mph 71 % 0.0 in
21:52 17.8 °F 12.7 °F 1000.2 in SW 8.0 mph 17.7 mph 72 % 0.0 in
21:57 17.7 °F 12.8 °F 1000.2 in SW 11.3 mph 17.7 mph 73 % 0.0 in
22:02 17.5 °F 12.8 °F 1000.2 in SW 6.4 mph 16.1 mph 74 % 0.0 in
22:12 17.4 °F 12.9 °F 1000.2 in SW 4.8 mph 16.1 mph 75 % 0.0 in
22:17 17.3 °F 12.8 °F 1000.2 in SW 4.8 mph 16.1 mph 75 % 0.0 in
22:22 17.2 °F 12.9 °F 1000.2 in SW 3.2 mph 16.1 mph 76 % 0.0 in
22:32 16.8 °F 12.7 °F 1000.6 in SW 6.4 mph 12.9 mph 77 % 0.0 in
22:37 16.7 °F 12.8 °F 1000.6 in SW 9.7 mph 9.7 mph 78 % 0.0 in
22:47 16.7 °F 12.8 °F 1000.6 in SW 4.8 mph 11.3 mph 78 % 0.0 in
22:52 16.5 °F 12.8 °F 1000.9 in SSW 1.6 mph 11.3 mph 79 % 0.0 in
23:02 15.9 °F 12.6 °F 1000.9 in SSW 1.6 mph 9.7 mph 81 % 0.0 in
23:12 15.8 °F 12.9 °F 1000.9 in SSW 1.6 mph 4.8 mph 83 % 0.0 in
23:17 15.7 °F 12.8 °F 1000.9 in SW 3.2 mph 6.4 mph 83 % 0.0 in
23:22 15.6 °F 12.9 °F 1000.9 in SW 1.6 mph 6.4 mph 84 % 0.0 in
23:27 15.7 °F 13.0 °F 1000.9 in SW 1.6 mph 4.8 mph 84 % 0.0 in
23:32 15.7 °F 13.0 °F 1000.9 in SW 3.2 mph 4.8 mph 84 % 0.0 in
23:37 15.7 °F 12.8 °F 1000.9 in SSW 1.6 mph 3.2 mph 83 % 0.0 in
23:42 15.7 °F 13.0 °F 1000.9 in SW 3.2 mph 4.8 mph 84 % 0.0 in
23:47 15.6 °F 12.9 °F 1000.9 in SW 3.2 mph 6.4 mph 84 % 0.0 in
23:52 15.4 °F 12.9 °F 1000.9 in SSW 1.6 mph 6.4 mph 85 % 0.0 in
Meteo18
Compliments of Weather Underground - 4 mb

Script developed by  Jim McMurry - jmcmurry@mwt.net Adapted for the template by  Wim van der Kuil - Leuven-Template.eu

You find our weather info also at:

European Weather Network

Weather Underground

Equipment we use:

Weather-station
Davis Vue

Weather-program
Meteobridge

Weather-server
Raspberry PI 2 B+

Provider
1 and 1

Davis Vue

Meteobridge

Raspberry PI 2 B+

1 and 1